Date,Time,Wetness (Wet Dry or Ice),Wind Speed (m/s),Temperature (C),Humidity (%),Pressure (mb),Radiation (W/m^2)
2020-11-19,21:10:00,DRY,6.37,5.73,58.0,775.00,1.2
2020-11-19,21:15:00,DRY,5.65,5.85,58.0,775.00,1.4
2020-11-19,21:20:00,DRY,5.63,5.57,59.0,775.00,1.3
2020-11-19,21:25:00,DRY,4.95,5.60,58.5,775.00,1.7
2020-11-19,21:30:00,DRY,6.00,5.57,58.7,775.00,1.1
2020-11-19,21:35:00,DRY,6.00,5.65,59.0,775.00,1.6
2020-11-19,21:40:00,DRY,4.63,5.67,59.0,775.00,1.1
2020-11-19,21:45:00,DRY,4.20,5.60,59.0,775.00,1.4
2020-11-19,21:50:00,DRY,6.40,5.57,60.0,775.00,1.3
2020-11-19,21:55:00,DRY,6.65,5.60,59.5,775.00,1.4
2020-11-19,22:00:00,DRY,6.17,5.57,59.3,775.00,1.3
2020-11-19,22:05:00,DRY,6.95,5.55,59.5,775.00,1.2
2020-11-19,22:10:00,DRY,8.50,5.47,60.0,775.00,1.2
2020-11-19,22:15:00,DRY,6.85,5.15,62.5,775.00,1.4
2020-11-19,22:20:00,DRY,7.77,5.30,61.7,775.00,1.1
2020-11-19,22:25:00,DRY,8.15,5.65,61.0,775.00,1.4
2020-11-19,22:30:00,DRY,6.67,5.50,61.7,775.00,1.3
2020-11-19,22:35:00,DRY,7.05,5.45,62.5,775.00,1.4
2020-11-19,22:40:00,DRY,5.67,5.37,62.7,775.00,1.1
2020-11-19,22:45:00,DRY,8.00,5.35,63.5,775.00,1.3
2020-11-19,22:50:00,DRY,7.07,5.37,63.0,775.00,1.3
2020-11-19,22:55:00,DRY,7.25,5.30,64.0,775.00,1.5
2020-11-19,23:00:00,DRY,6.07,5.37,63.7,775.00,1.2
2020-11-19,23:05:00,DRY,6.35,5.20,65.0,775.00,1.5
2020-11-19,23:10:00,DRY,6.63,5.27,65.0,775.00,1.8
2020-11-19,23:15:00,DRY,4.85,5.20,66.0,775.00,1.4
2020-11-19,23:20:00,DRY,7.50,5.17,65.7,775.00,1.1
2020-11-19,23:25:00,DRY,7.10,5.20,65.5,775.00,1.2
2020-11-19,23:30:00,DRY,7.47,5.17,66.0,775.00,1.6
2020-11-19,23:35:00,DRY,4.75,5.20,66.0,775.00,1.4
2020-11-19,23:40:00,DRY,4.07,5.17,66.0,775.00,1.5
2020-11-19,23:45:00,DRY,6.60,5.10,66.5,775.00,1.4
2020-11-19,23:50:00,DRY,3.17,5.07,67.0,775.00,0.8
2020-11-19,23:55:00,DRY,4.85,5.10,67.0,775.00,1.3
2020-11-20,00:00:00,DRY,6.20,5.13,67.0,774.67,1.3
2020-11-20,00:05:00,DRY,6.25,5.15,67.0,774.00,0.5
2020-11-20,00:10:00,DRY,4.77,5.27,66.0,774.00,1.2
2020-11-20,00:15:00,DRY,5.60,5.25,66.0,774.50,1.5
2020-11-20,00:20:00,DRY,7.55,5.25,66.5,774.00,1.3
2020-11-20,00:25:00,DRY,6.00,5.20,66.0,774.50,1.7
2020-11-20,00:30:00,DRY,7.97,5.60,64.3,774.00,1.2
2020-11-20,00:35:00,DRY,4.90,5.50,64.5,774.00,1.4
2020-11-20,00:40:00,DRY,6.27,5.63,63.7,774.00,1.2
2020-11-20,00:45:00,DRY,7.10,5.35,65.0,774.00,1.6
2020-11-20,00:50:00,DRY,5.43,5.20,67.0,774.00,1.2
2020-11-20,00:55:00,DRY,6.55,5.35,65.5,774.00,1.2
2020-11-20,01:00:00,DRY,5.17,5.40,65.3,774.00,1.2
2020-11-20,01:05:00,DRY,7.00,5.50,65.0,774.00,1.1
2020-11-20,01:10:00,DRY,3.93,5.37,65.7,774.00,1.1
2020-11-20,01:15:00,DRY,3.25,5.25,66.5,774.00,2.7
2020-11-20,01:20:00,DRY,4.07,5.27,67.0,774.00,1.5
2020-11-20,01:25:00,DRY,5.50,5.55,65.0,774.00,1.3
2020-11-20,01:30:00,DRY,7.57,5.30,67.0,774.00,1.2
2020-11-20,01:35:00,DRY,4.65,5.35,67.5,774.00,1.1
2020-11-20,01:40:00,DRY,3.47,5.37,67.7,774.00,1.1
2020-11-20,01:45:00,DRY,2.50,5.45,67.0,774.00,0.7
2020-11-20,01:50:00,DRY,2.43,5.40,68.0,774.00,1.4
2020-11-20,01:55:00,DRY,3.25,5.45,67.0,774.00,1.6
2020-11-20,02:00:00,DRY,3.83,5.40,68.0,774.00,1.3
2020-11-20,02:05:00,DRY,3.30,5.45,67.0,774.00,1.8
2020-11-20,02:10:00,DRY,3.70,5.43,67.3,774.00,1.4
2020-11-20,02:15:00,DRY,5.65,5.50,67.0,774.00,1.2
2020-11-20,02:20:00,DRY,2.90,5.53,66.7,774.00,1.6
2020-11-20,02:25:00,DRY,1.60,5.50,66.0,774.00,0.8
2020-11-20,02:30:00,DRY,3.27,5.63,65.7,774.00,1.4
2020-11-20,02:35:00,DRY,2.00,5.70,64.5,774.00,1.2
2020-11-20,02:40:00,DRY,3.50,5.67,64.7,774.00,0.9
2020-11-20,02:45:00,DRY,5.80,5.70,65.0,774.00,1.6
2020-11-20,02:50:00,DRY,4.53,5.67,64.7,774.00,1.6
2020-11-20,02:55:00,DRY,6.85,5.70,64.5,774.00,1.4
2020-11-20,03:00:00,DRY,5.27,5.73,64.0,774.00,1.2
2020-11-20,03:05:00,DRY,5.90,5.75,64.0,774.00,1.3
2020-11-20,03:10:00,DRY,3.43,5.80,63.0,774.00,1.0
2020-11-20,03:15:00,DRY,3.20,5.95,62.5,774.00,1.2
2020-11-20,03:20:00,DRY,4.93,5.87,63.0,774.00,1.0
2020-11-20,03:25:00,DRY,6.55,5.90,63.0,774.00,1.4
2020-11-20,03:30:00,DRY,5.60,5.90,62.7,774.33,1.3
2020-11-20,03:35:00,DRY,2.25,5.90,63.0,774.00,1.3
2020-11-20,03:40:00,DRY,3.43,5.77,63.7,774.00,1.3
2020-11-20,03:45:00,DRY,2.65,5.90,62.5,774.00,0.9
2020-11-20,03:50:00,DRY,3.43,6.00,62.3,774.00,1.0
2020-11-20,03:55:00,DRY,5.30,5.90,63.0,774.00,1.1
2020-11-20,04:00:00,DRY,5.07,5.93,62.3,774.00,1.6
2020-11-20,04:05:00,DRY,4.15,5.75,64.0,774.00,1.3
2020-11-20,04:10:00,DRY,3.50,5.70,64.3,774.00,1.2
2020-11-20,04:15:00,DRY,2.00,5.80,64.0,774.00,1.5
2020-11-20,04:20:00,DRY,3.57,5.70,64.0,774.00,1.5
2020-11-20,04:25:00,DRY,4.00,5.65,64.5,774.00,1.4
2020-11-20,04:30:00,DRY,1.87,5.77,63.7,774.00,1.2
2020-11-20,04:35:00,DRY,2.00,5.60,64.5,774.00,0.8
2020-11-20,04:40:00,DRY,3.03,5.57,64.3,774.00,1.4
2020-11-20,04:45:00,DRY,2.20,5.65,64.0,774.00,1.2
2020-11-20,04:50:00,DRY,1.30,5.57,64.7,774.00,1.7
2020-11-20,04:55:00,DRY,1.40,5.70,64.0,774.00,0.7
2020-11-20,05:00:00,DRY,1.27,5.63,64.7,774.00,1.6
2020-11-20,05:05:00,DRY,1.05,5.70,64.0,774.00,0.7
2020-11-20,05:10:00,DRY,2.07,5.80,63.7,774.00,1.3
2020-11-20,05:15:00,DRY,2.30,6.00,62.0,774.00,0.8
2020-11-20,05:20:00,DRY,3.27,6.00,61.7,774.00,1.2
2020-11-20,05:25:00,DRY,1.50,5.90,62.5,774.00,2.9
2020-11-20,05:30:00,DRY,3.33,5.87,63.0,774.00,1.5
2020-11-20,05:35:00,DRY,2.05,5.90,63.0,774.00,0.9
2020-11-20,05:40:00,DRY,2.70,6.00,62.3,774.00,1.7
2020-11-20,05:45:00,DRY,2.25,5.90,63.0,774.00,1.6
2020-11-20,05:50:00,DRY,2.37,6.03,62.0,774.00,1.0
2020-11-20,05:55:00,DRY,1.90,6.15,61.5,774.00,0.9
2020-11-20,06:00:00,DRY,0.80,5.97,62.3,774.00,0.8
2020-11-20,06:05:00,DRY,2.65,5.85,63.0,774.00,0.8
2020-11-20,06:10:00,DRY,2.93,6.07,62.0,774.00,1.5
2020-11-20,06:15:00,DRY,2.15,6.15,61.5,774.00,1.4
2020-11-20,06:20:00,DRY,2.53,6.00,62.0,774.00,0.7
2020-11-20,06:25:00,DRY,3.20,6.15,62.0,774.00,0.9
2020-11-20,06:30:00,DRY,2.40,6.17,61.3,774.00,1.8
2020-11-20,06:35:00,DRY,2.35,6.10,62.0,774.00,0.9
2020-11-20,06:40:00,DRY,2.60,6.20,61.0,774.00,1.4
2020-11-20,06:45:00,DRY,2.60,6.10,61.5,774.00,0.3
2020-11-20,06:50:00,DRY,1.17,5.93,62.3,774.33,1.2
2020-11-20,06:55:00,DRY,2.00,5.80,63.0,774.00,1.1
2020-11-20,07:00:00,DRY,2.63,5.80,63.3,774.00,1.7
2020-11-20,07:05:00,DRY,2.15,5.80,63.0,774.00,1.4
2020-11-20,07:10:00,DRY,2.73,5.93,62.3,774.33,1.6
2020-11-20,07:15:00,DRY,2.95,6.15,61.5,775.00,0.9
2020-11-20,07:20:00,DRY,2.47,5.93,62.3,775.00,1.9
2020-11-20,07:25:00,DRY,1.75,5.75,63.0,775.00,2.4
2020-11-20,07:30:00,DRY,1.77,5.97,62.0,775.00,3.5
2020-11-20,07:35:00,DRY,2.55,6.20,60.5,775.00,6.8
2020-11-20,07:40:00,DRY,1.47,5.93,62.0,775.00,9.7
2020-11-20,07:45:00,DRY,2.05,6.00,61.5,775.00,13.4
2020-11-20,07:50:00,DRY,3.07,5.87,62.3,775.00,16.6
2020-11-20,07:55:00,DRY,1.00,6.00,62.0,775.00,19.0
2020-11-20,08:00:00,DRY,3.50,5.93,62.3,775.00,19.1
2020-11-20,08:05:00,DRY,3.40,6.10,61.5,775.00,22.1
2020-11-20,08:10:00,DRY,2.47,6.40,60.3,775.00,27.7
2020-11-20,08:15:00,DRY,2.50,6.15,61.0,775.00,49.8
2020-11-20,08:20:00,DRY,2.63,6.50,59.3,775.00,152.0
2020-11-20,08:25:00,DRY,3.00,6.70,58.5,775.00,170.0
2020-11-20,08:30:00,DRY,2.70,6.77,58.0,775.00,177.2
2020-11-20,08:35:00,DRY,2.70,6.90,57.5,775.00,214.1
2020-11-20,08:40:00,DRY,1.73,6.97,57.3,775.00,234.5
2020-11-20,08:45:00,DRY,2.50,6.90,57.5,775.00,253.7
2020-11-20,08:50:00,DRY,3.80,7.07,56.7,775.33,272.8
2020-11-20,08:55:00,DRY,3.70,7.20,56.0,775.00,291.7
2020-11-20,09:00:00,DRY,3.43,7.03,57.0,775.00,311.3
2020-11-20,09:05:00,DRY,2.60,6.90,58.0,775.00,333.2
2020-11-20,09:10:00,DRY,3.40,6.90,57.3,775.00,353.5
2020-11-20,09:15:00,DRY,2.70,7.00,57.5,775.00,374.8
2020-11-20,09:20:00,DRY,3.10,7.03,57.3,775.00,400.1
2020-11-20,09:25:00,DRY,2.20,7.10,57.0,775.00,423.0
2020-11-20,09:30:00,DRY,0.97,7.40,56.3,776.00,456.7
2020-11-20,09:35:00,DRY,1.35,8.15,53.0,776.00,485.1
2020-11-20,09:40:00,DRY,0.97,7.90,56.0,776.00,522.7
2020-11-20,09:45:00,DRY,0.60,8.05,55.0,776.00,560.8
2020-11-20,09:50:00,DRY,1.77,8.13,54.0,775.33,580.9
2020-11-20,09:55:00,DRY,1.90,8.10,55.0,775.00,608.1
2020-11-20,10:00:00,DRY,2.60,8.00,55.0,775.00,633.7
2020-11-20,10:05:00,DRY,2.20,8.05,55.5,776.00,630.6
2020-11-20,10:10:00,DRY,2.63,7.97,56.3,775.33,662.6
2020-11-20,10:15:00,DRY,1.40,8.10,56.0,776.00,435.9
2020-11-20,10:20:00,DRY,2.90,8.30,55.0,775.67,720.2
2020-11-20,10:25:00,DRY,4.55,8.15,54.5,775.50,747.9
2020-11-20,10:30:00,DRY,0.70,8.47,55.7,776.00,694.8
2020-11-20,10:35:00,DRY,0.90,8.90,55.5,776.00,733.0
2020-11-20,10:40:00,DRY,2.17,8.77,53.7,776.00,668.2
2020-11-20,10:45:00,DRY,2.25,8.60,55.0,776.00,732.8
2020-11-20,10:50:00,DRY,1.80,8.87,52.7,776.00,637.7
2020-11-20,10:55:00,DRY,1.60,8.65,55.5,776.00,705.8
2020-11-20,11:00:00,DRY,1.63,9.00,55.0,775.67,715.1
2020-11-20,11:05:00,DRY,1.55,8.90,55.5,775.50,725.1
2020-11-20,11:10:00,DRY,3.93,8.83,54.0,775.67,734.8
2020-11-20,11:15:00,DRY,2.10,9.05,55.0,776.00,745.1
2020-11-20,11:20:00,DRY,1.97,8.80,55.7,776.00,754.4
2020-11-20,11:25:00,DRY,2.10,9.15,52.0,775.50,761.2
2020-11-20,11:30:00,DRY,4.63,8.87,54.3,775.67,772.7
2020-11-20,11:35:00,DRY,3.35,8.90,59.0,776.00,777.8
2020-11-20,11:40:00,DRY,2.83,8.67,59.7,776.00,785.2
2020-11-20,11:45:00,DRY,2.35,8.75,56.0,776.00,792.0
2020-11-20,11:50:00,DRY,2.30,9.07,53.7,775.67,797.9
2020-11-20,11:55:00,DRY,1.10,9.30,55.5,776.00,803.9
2020-11-20,12:00:00,DRY,3.50,9.00,58.7,775.00,810.2
2020-11-20,12:05:00,DRY,3.70,8.70,65.5,775.00,814.0
2020-11-20,12:10:00,DRY,4.90,8.87,62.0,775.00,817.2
2020-11-20,12:15:00,DRY,3.25,8.80,60.0,775.00,823.6
2020-11-20,12:20:00,DRY,3.00,9.23,66.0,775.00,828.1
2020-11-20,12:25:00,DRY,3.50,9.05,70.0,775.00,832.3
2020-11-20,12:30:00,DRY,2.50,9.33,67.3,775.00,832.5
2020-11-20,12:35:00,DRY,2.00,8.80,62.0,775.00,835.8
2020-11-20,12:40:00,DRY,2.00,8.97,61.0,775.00,833.5
2020-11-20,12:45:00,DRY,3.70,9.25,59.5,775.00,838.0
2020-11-20,12:50:00,DRY,2.03,9.00,62.3,775.00,836.4
2020-11-20,12:55:00,DRY,1.85,9.25,57.0,775.00,834.9
2020-11-20,13:00:00,DRY,3.97,8.83,61.3,775.00,835.2
2020-11-20,13:05:00,DRY,3.10,8.65,58.5,775.00,835.9
2020-11-20,13:10:00,DRY,3.03,9.07,55.3,775.00,835.4
2020-11-20,13:15:00,DRY,5.20,8.95,54.0,775.00,832.8
2020-11-20,13:20:00,DRY,3.53,9.13,52.3,775.00,826.7
2020-11-20,13:25:00,DRY,4.70,8.70,53.0,775.00,825.0
2020-11-20,13:30:00,DRY,2.50,9.40,54.0,775.00,825.1
2020-11-20,13:35:00,DRY,1.70,9.20,54.0,775.00,814.8
2020-11-20,13:40:00,DRY,3.97,9.23,51.3,775.00,815.4
2020-11-20,13:45:00,DRY,3.55,9.00,54.5,775.00,809.3
2020-11-20,13:50:00,DRY,3.70,9.23,51.3,775.00,816.9
2020-11-20,13:55:00,DRY,3.05,9.20,52.5,775.00,799.2
2020-11-20,14:00:00,DRY,3.40,9.53,52.0,774.67,793.3
2020-11-20,14:05:00,DRY,1.50,9.65,50.5,775.00,788.3
2020-11-20,14:10:00,DRY,3.10,9.50,51.0,774.67,744.2
2020-11-20,14:15:00,DRY,2.30,9.70,49.0,774.50,777.5
2020-11-20,14:20:00,DRY,3.10,9.63,48.7,774.67,764.6
2020-11-20,14:25:00,DRY,3.00,9.60,49.0,774.00,755.5
2020-11-20,14:30:00,DRY,2.73,9.77,51.7,774.33,745.7
2020-11-20,14:35:00,DRY,3.30,9.30,54.5,774.50,735.4
2020-11-20,14:40:00,DRY,2.97,9.27,55.3,774.00,725.3
2020-11-20,14:45:00,DRY,1.40,9.35,55.5,774.50,713.4
2020-11-20,14:50:00,DRY,2.40,9.13,60.7,774.67,704.6
2020-11-20,14:55:00,DRY,2.30,9.45,57.5,775.00,694.1
2020-11-20,15:00:00,DRY,2.13,9.33,60.7,774.67,679.7
2020-11-20,15:05:00,DRY,2.50,9.70,59.0,774.50,666.1
2020-11-20,15:10:00,DRY,2.27,9.37,60.7,774.67,652.6
2020-11-20,15:15:00,DRY,1.65,9.70,56.5,774.50,639.9
2020-11-20,15:20:00,DRY,2.03,9.43,60.7,774.33,625.3
2020-11-20,15:25:00,DRY,2.05,9.40,60.5,775.00,612.0
2020-11-20,15:30:00,DRY,2.13,9.37,58.7,775.00,599.6
2020-11-20,15:35:00,DRY,2.40,9.20,63.5,775.00,584.0
2020-11-20,15:40:00,DRY,2.60,9.03,63.3,774.67,569.6
2020-11-20,15:45:00,DRY,1.95,9.10,61.5,775.00,555.6
2020-11-20,15:50:00,DRY,1.60,9.07,62.3,775.00,541.6
2020-11-20,15:55:00,DRY,1.90,9.00,65.5,775.00,526.0
2020-11-20,16:00:00,DRY,3.27,8.80,59.7,775.00,510.3
2020-11-20,16:05:00,DRY,3.40,8.80,58.5,775.00,491.7
2020-11-20,16:10:00,DRY,2.37,9.10,59.3,775.00,470.1
2020-11-20,16:15:00,DRY,1.40,9.15,58.0,775.00,450.1
2020-11-20,16:20:00,DRY,2.67,9.20,58.0,775.00,431.0
2020-11-20,16:25:00,DRY,1.65,9.55,56.5,775.00,414.1
2020-11-20,16:30:00,DRY,1.27,9.13,57.3,775.00,396.2
2020-11-20,16:35:00,DRY,1.40,8.75,58.0,775.00,377.6
2020-11-20,16:40:00,DRY,2.27,8.83,56.7,775.00,356.2
2020-11-20,16:45:00,DRY,1.15,9.25,54.5,775.00,336.4
2020-11-20,16:50:00,DRY,3.13,9.10,55.3,775.00,316.2
2020-11-20,16:55:00,DRY,2.50,8.80,56.5,775.00,298.1
2020-11-20,17:00:00,DRY,1.77,8.73,58.3,775.00,278.3
2020-11-20,17:05:00,DRY,1.05,8.60,58.5,775.00,258.4
2020-11-20,17:10:00,DRY,2.20,8.47,59.7,775.00,240.7
2020-11-20,17:15:00,DRY,2.30,8.40,59.5,775.00,218.6
2020-11-20,17:20:00,DRY,2.03,8.40,59.0,775.00,158.2
2020-11-20,17:25:00,DRY,1.70,8.20,59.5,775.00,98.5
2020-11-20,17:30:00,DRY,1.33,8.00,59.7,775.00,71.6
2020-11-20,17:35:00,DRY,1.55,8.05,59.5,775.00,62.9
2020-11-20,17:40:00,DRY,1.80,8.03,59.0,775.00,55.2
2020-11-20,17:45:00,DRY,1.65,8.05,59.5,775.00,50.8
2020-11-20,17:50:00,DRY,1.03,7.93,59.0,775.00,44.4
2020-11-20,17:55:00,DRY,0.90,7.95,59.5,775.00,54.2
2020-11-20,18:00:00,DRY,1.73,7.93,60.3,775.00,41.1
2020-11-20,18:05:00,DRY,0.95,7.90,61.0,775.00,21.4
2020-11-20,18:10:00,DRY,1.57,7.63,61.3,775.00,11.5
2020-11-20,18:15:00,DRY,1.35,7.65,60.0,775.00,6.3
2020-11-20,18:20:00,DRY,1.97,7.53,61.0,775.00,4.4
2020-11-20,18:25:00,DRY,1.60,7.50,59.5,775.00,2.9
2020-11-20,18:30:00,DRY,0.83,7.57,59.7,775.00,1.5
2020-11-20,18:35:00,DRY,2.10,7.40,60.0,775.00,0.8
2020-11-20,18:40:00,DRY,1.20,7.43,58.7,775.00,1.2
2020-11-20,18:45:00,DRY,1.20,7.50,58.5,775.00,2.0
2020-11-20,18:50:00,DRY,1.33,7.57,57.7,775.33,1.3
2020-11-20,18:55:00,DRY,2.15,7.40,57.5,775.00,1.2
2020-11-20,19:00:00,DRY,1.50,7.30,58.0,775.33,1.3
2020-11-20,19:05:00,DRY,6.10,7.50,56.5,775.00,1.2
2020-11-20,19:10:00,DRY,2.80,7.60,55.7,775.67,1.2
2020-11-20,19:15:00,DRY,3.55,7.35,56.0,775.50,1.5
2020-11-20,19:20:00,DRY,1.67,7.63,54.7,776.00,1.5
2020-11-20,19:25:00,DRY,2.10,7.55,55.0,776.00,0.9
2020-11-20,19:30:00,DRY,2.77,7.47,55.3,776.00,1.1
2020-11-20,19:35:00,DRY,0.80,7.55,55.0,776.00,1.2
2020-11-20,19:40:00,DRY,2.97,7.67,54.3,776.00,2.0
2020-11-20,19:45:00,DRY,2.45,7.50,55.0,776.00,1.2
2020-11-20,19:50:00,DRY,1.70,7.63,53.7,776.00,1.2
2020-11-20,19:55:00,DRY,2.70,7.90,52.0,776.00,1.1
2020-11-20,20:00:00,DRY,2.17,8.00,51.7,776.00,1.8
2020-11-20,20:05:00,DRY,2.20,8.15,50.5,776.00,1.6
2020-11-20,20:10:00,DRY,3.10,8.10,50.7,776.00,1.4
2020-11-20,20:15:00,DRY,2.85,8.00,51.0,776.00,1.3
2020-11-20,20:20:00,DRY,2.53,8.00,51.0,776.00,0.9
2020-11-20,20:25:00,DRY,2.20,8.05,51.5,776.00,1.6
2020-11-20,20:30:00,DRY,3.20,8.10,50.7,776.00,0.8
2020-11-20,20:35:00,DRY,3.80,8.05,51.0,776.00,1.1
2020-11-20,20:40:00,DRY,3.07,8.00,51.0,776.00,1.3
2020-11-20,20:45:00,DRY,3.00,7.95,51.5,776.00,1.1
2020-11-20,20:50:00,DRY,3.67,7.97,51.3,776.00,0.8
2020-11-20,20:55:00,DRY,2.35,7.95,51.0,776.00,0.4
2020-11-20,21:00:00,DRY,3.43,7.97,51.3,776.00,1.5
2020-11-20,21:05:00,DRY,3.95,7.95,51.5,776.00,1.1
2020-11-20,21:10:00,DRY,3.30,7.93,51.7,776.00,1.5
2020-11-20,21:15:00,DRY,3.05,8.00,51.0,776.00,1.1
2020-11-20,21:20:00,DRY,2.37,7.90,51.7,776.00,1.2
2020-11-20,21:25:00,DRY,2.95,7.85,52.0,776.00,1.0
2020-11-20,21:30:00,DRY,3.50,7.70,53.0,776.00,0.9
2020-11-20,21:35:00,DRY,4.85,7.65,53.0,776.00,1.2
2020-11-20,21:40:00,DRY,3.03,7.67,53.0,776.00,1.2
2020-11-20,21:45:00,DRY,3.90,7.70,52.5,776.00,1.3
2020-11-20,21:50:00,DRY,3.53,7.67,53.0,776.00,1.5
2020-11-20,21:55:00,DRY,3.55,7.60,53.0,776.00,1.0
2020-11-20,22:00:00,DRY,5.60,7.73,52.3,776.00,1.7
2020-11-20,22:05:00,DRY,2.95,7.65,52.5,776.00,0.7
2020-11-20,22:10:00,DRY,4.77,7.77,52.0,776.00,0.9
2020-11-20,22:15:00,DRY,5.75,7.65,53.0,776.00,0.6
2020-11-20,22:20:00,DRY,4.70,7.57,53.3,776.00,1.2
2020-11-20,22:25:00,DRY,3.25,7.65,53.0,776.00,1.3
2020-11-20,22:30:00,DRY,4.83,7.40,54.3,776.00,1.1
2020-11-20,22:35:00,DRY,4.45,7.30,55.0,776.00,1.4
2020-11-20,22:40:00,DRY,3.27,7.33,55.0,776.00,0.8
2020-11-20,22:45:00,DRY,3.95,7.35,55.0,776.00,1.6
2020-11-20,22:50:00,DRY,3.00,7.43,54.0,776.00,0.8
2020-11-20,22:55:00,DRY,3.45,7.35,55.5,776.00,1.1
2020-11-20,23:00:00,DRY,4.50,7.27,55.7,776.00,1.1
2020-11-20,23:05:00,DRY,3.80,7.35,55.0,776.00,1.4
2020-11-20,23:10:00,DRY,3.00,7.43,54.7,776.00,1.7
2020-11-20,23:15:00,DRY,3.10,7.40,55.0,776.00,0.9
2020-11-20,23:20:00,DRY,2.37,7.30,55.3,776.00,1.3
2020-11-20,23:25:00,DRY,3.45,7.25,55.5,776.00,1.2
2020-11-20,23:30:00,DRY,3.13,7.27,56.3,776.00,1.1
2020-11-20,23:35:00,DRY,3.95,7.30,55.5,776.00,1.1
2020-11-20,23:40:00,DRY,4.17,7.33,54.7,776.00,1.3
2020-11-20,23:45:00,DRY,1.60,7.60,52.5,776.00,1.1
2020-11-20,23:50:00,DRY,3.33,7.87,50.0,776.00,1.4
2020-11-20,23:55:00,DRY,2.35,7.70,51.5,776.00,1.1
2020-11-21,00:00:00,DRY,4.40,7.53,53.3,776.00,1.0
2020-11-21,00:05:00,DRY,4.50,7.35,55.0,776.00,1.2
2020-11-21,00:10:00,DRY,4.97,7.23,56.0,776.00,1.1
2020-11-21,00:15:00,DRY,3.85,7.20,55.5,776.00,1.4
2020-11-21,00:20:00,DRY,3.17,7.47,53.0,776.00,1.3
2020-11-21,00:25:00,DRY,4.00,7.50,53.5,776.00,1.1
2020-11-21,00:30:00,DRY,4.20,7.27,55.3,776.00,1.7
2020-11-21,00:35:00,DRY,4.60,7.15,56.5,776.00,1.2
2020-11-21,00:40:00,DRY,3.87,7.10,56.7,776.00,0.9
2020-11-21,00:45:00,DRY,4.05,7.00,57.0,776.00,0.9
2020-11-21,00:50:00,DRY,3.33,6.77,58.7,776.00,1.5
2020-11-21,00:55:00,DRY,3.55,6.90,57.5,776.00,1.2
2020-11-21,01:00:00,DRY,2.83,7.03,57.0,776.00,1.6
2020-11-21,01:05:00,DRY,2.55,7.00,56.5,775.50,1.7
2020-11-21,01:10:00,DRY,1.80,6.77,58.0,775.67,1.6
2020-11-21,01:15:00,DRY,1.05,6.65,59.0,776.00,0.8
2020-11-21,01:20:00,DRY,3.20,6.80,58.0,775.33,1.3
2020-11-21,01:25:00,DRY,1.75,6.70,58.0,775.00,1.8
2020-11-21,01:30:00,DRY,0.77,6.57,59.0,776.00,1.1
2020-11-21,01:35:00,DRY,2.05,6.60,58.5,775.50,1.3
2020-11-21,01:40:00,DRY,1.97,6.67,59.0,775.33,1.4
2020-11-21,01:45:00,DRY,1.70,6.70,58.0,775.50,1.1
2020-11-21,01:50:00,DRY,2.83,6.67,58.3,775.33,1.0
2020-11-21,01:55:00,DRY,3.40,6.50,59.0,775.00,0.7
2020-11-21,02:00:00,DRY,2.53,6.53,59.0,775.00,1.3
2020-11-21,02:05:00,DRY,2.50,6.60,59.0,775.50,0.6
2020-11-21,02:10:00,DRY,3.73,6.60,58.7,775.00,1.3
2020-11-21,02:15:00,DRY,4.10,6.70,58.0,775.00,1.2
2020-11-21,02:20:00,DRY,3.33,6.77,56.0,775.67,1.0
2020-11-21,02:25:00,DRY,3.75,6.80,54.0,775.00,1.1
2020-11-21,02:30:00,DRY,4.20,6.83,53.7,775.00,1.4
2020-11-21,02:35:00,DRY,3.05,6.70,54.5,775.00,1.0
2020-11-21,02:40:00,DRY,2.93,6.77,55.0,775.00,1.2
2020-11-21,02:45:00,DRY,5.15,6.70,55.5,775.00,1.1
2020-11-21,02:50:00,DRY,5.07,6.77,55.7,775.00,1.2
2020-11-21,02:55:00,DRY,4.30,6.80,56.0,775.00,1.1
2020-11-21,03:00:00,DRY,4.27,6.70,56.0,775.00,1.2
2020-11-21,03:05:00,DRY,6.05,6.65,56.5,775.00,1.3
2020-11-21,03:10:00,DRY,5.17,7.00,53.3,775.00,1.6
2020-11-21,03:15:00,DRY,5.75,6.80,54.5,775.00,0.7
2020-11-21,03:20:00,DRY,4.23,6.93,53.3,775.00,1.4
2020-11-21,03:25:00,DRY,4.80,6.90,54.5,775.00,2.0
2020-11-21,03:30:00,DRY,4.77,7.13,52.3,775.00,1.4
2020-11-21,03:35:00,DRY,3.05,7.25,50.5,775.00,1.6
2020-11-21,03:40:00,DRY,2.07,7.23,50.3,775.00,1.5
2020-11-21,03:45:00,DRY,2.30,7.30,50.0,775.00,1.6
2020-11-21,03:50:00,DRY,2.70,7.17,51.3,775.00,1.1
2020-11-21,03:55:00,DRY,2.05,7.00,53.0,775.00,1.1
2020-11-21,04:00:00,DRY,3.03,6.93,53.7,775.00,1.2
2020-11-21,04:05:00,DRY,2.45,6.90,53.5,775.00,1.4
2020-11-21,04:10:00,DRY,1.80,6.80,53.3,775.00,1.3
2020-11-21,04:15:00,DRY,2.90,6.90,51.5,775.00,1.1
2020-11-21,04:20:00,DRY,2.50,7.03,50.3,775.00,1.8
2020-11-21,04:25:00,DRY,3.00,6.95,50.0,775.00,1.4
2020-11-21,04:30:00,DRY,2.10,7.27,47.0,775.00,1.4
2020-11-21,04:35:00,DRY,2.85,7.30,48.0,775.00,1.5
2020-11-21,04:40:00,DRY,2.37,7.07,49.3,775.00,1.7
2020-11-21,04:45:00,DRY,2.15,7.10,50.0,775.00,1.4
2020-11-21,04:50:00,DRY,2.60,7.00,51.0,775.00,1.1
2020-11-21,04:55:00,DRY,1.30,6.90,50.5,775.00,0.8
2020-11-21,05:00:00,DRY,2.67,7.00,50.3,775.00,1.2
2020-11-21,05:05:00,DRY,3.10,7.05,50.0,775.00,1.6
2020-11-21,05:10:00,DRY,2.10,7.10,49.7,775.00,1.1
2020-11-21,05:15:00,DRY,2.05,7.10,50.5,775.00,0.3
2020-11-21,05:20:00,DRY,1.87,7.13,51.0,775.00,1.4
2020-11-21,05:25:00,DRY,1.25,6.95,52.5,775.00,1.9
2020-11-21,05:30:00,DRY,2.10,6.83,55.0,775.00,1.2
2020-11-21,05:35:00,DRY,2.35,6.70,56.0,775.00,0.6
2020-11-21,05:40:00,DRY,3.00,6.50,57.7,775.00,1.1
2020-11-21,05:45:00,DRY,3.60,6.65,58.0,775.00,1.3
2020-11-21,05:50:00,DRY,2.33,6.83,57.3,775.00,1.3
2020-11-21,05:55:00,DRY,4.05,6.85,57.0,775.00,0.9
2020-11-21,06:00:00,DRY,4.03,6.77,57.3,775.00,1.3
2020-11-21,06:05:00,DRY,3.15,6.75,57.0,775.00,0.5
2020-11-21,06:10:00,DRY,2.50,6.77,57.0,775.00,0.8
2020-11-21,06:15:00,DRY,3.30,6.75,57.0,775.00,1.5
2020-11-21,06:20:00,DRY,3.13,6.80,55.7,775.00,1.2
2020-11-21,06:25:00,DRY,3.80,6.85,55.5,775.00,0.9
2020-11-21,06:30:00,DRY,2.77,6.83,56.0,775.00,1.3
2020-11-21,06:35:00,DRY,2.55,6.80,55.0,775.00,0.9
2020-11-21,06:40:00,DRY,2.80,6.77,55.0,775.00,1.0
2020-11-21,06:45:00,DRY,3.00,6.85,56.0,775.00,1.3
2020-11-21,06:50:00,DRY,3.67,6.73,56.3,775.00,1.9
2020-11-21,06:55:00,DRY,2.85,6.70,57.0,775.00,0.9
2020-11-21,07:00:00,DRY,2.90,6.70,57.0,775.00,1.3
2020-11-21,07:05:00,DRY,1.15,6.70,56.5,775.00,0.6
2020-11-21,07:10:00,DRY,3.10,6.67,55.7,775.00,1.0
2020-11-21,07:15:00,DRY,3.70,6.75,56.0,775.00,0.8
2020-11-21,07:20:00,DRY,3.20,6.83,55.3,775.00,1.1
2020-11-21,07:25:00,DRY,2.90,6.80,56.0,775.00,1.9
2020-11-21,07:30:00,DRY,3.07,6.77,55.3,775.00,3.1
2020-11-21,07:35:00,DRY,4.55,6.85,55.0,775.00,5.3
2020-11-21,07:40:00,DRY,2.80,6.73,57.0,775.00,8.4
2020-11-21,07:45:00,DRY,3.15,6.80,55.5,775.00,11.9
2020-11-21,07:50:00,DRY,2.67,6.90,53.7,775.00,14.9
2020-11-21,07:55:00,DRY,4.50,7.10,52.5,775.50,17.1
2020-11-21,08:00:00,DRY,2.47,6.97,55.3,775.67,19.7
2020-11-21,08:05:00,DRY,2.65,6.90,57.0,775.50,22.6
2020-11-21,08:10:00,DRY,4.50,7.00,56.3,775.67,24.9
2020-11-21,08:15:00,DRY,2.75,7.05,57.0,776.00,27.2
2020-11-21,08:20:00,DRY,4.07,7.17,56.7,776.00,141.5
2020-11-21,08:25:00,DRY,3.85,7.35,56.5,776.00,173.8
2020-11-21,08:30:00,DRY,3.27,7.43,54.7,776.00,193.7
2020-11-21,08:35:00,DRY,4.35,7.45,54.0,776.00,214.3
2020-11-21,08:40:00,DRY,2.57,7.57,55.0,776.00,234.8
2020-11-21,08:45:00,DRY,2.70,7.65,53.5,776.00,256.2
2020-11-21,08:50:00,DRY,3.23,7.70,54.7,776.00,276.6
2020-11-21,08:55:00,DRY,3.85,7.80,53.0,776.00,296.8
2020-11-21,09:00:00,DRY,2.77,7.83,52.3,776.00,317.4
2020-11-21,09:05:00,DRY,1.30,8.05,53.5,776.00,337.0
2020-11-21,09:10:00,DRY,2.40,8.30,48.7,776.00,358.3
2020-11-21,09:15:00,DRY,2.30,8.25,48.0,776.00,378.3
2020-11-21,09:20:00,DRY,1.77,8.37,48.3,776.00,399.2
2020-11-21,09:25:00,DRY,0.40,8.65,47.0,776.00,418.4
2020-11-21,09:30:00,DRY,1.67,8.67,46.0,776.00,438.1
2020-11-21,09:35:00,DRY,0.80,8.80,45.0,776.00,457.2
2020-11-21,09:40:00,DRY,1.50,8.57,46.3,776.00,475.4
2020-11-21,09:45:00,DRY,1.95,8.60,44.5,776.00,495.6
2020-11-21,09:50:00,DRY,1.67,8.87,44.7,776.00,513.4
2020-11-21,09:55:00,DRY,1.55,8.70,45.5,776.00,530.3
2020-11-21,10:00:00,DRY,1.97,8.87,45.0,776.00,549.1
2020-11-21,10:05:00,DRY,2.45,8.60,47.0,776.00,567.0
2020-11-21,10:10:00,DRY,2.87,8.57,47.0,776.00,585.2
2020-11-21,10:15:00,DRY,3.00,8.55,42.5,776.00,607.8
2020-11-21,10:20:00,DRY,2.43,8.77,42.7,776.00,628.6
2020-11-21,10:25:00,DRY,2.65,8.80,41.0,776.00,650.1
2020-11-21,10:30:00,DRY,4.07,8.80,39.0,776.00,659.8
2020-11-21,10:35:00,DRY,4.55,8.65,42.0,776.00,631.5
2020-11-21,10:40:00,DRY,3.40,8.80,42.0,776.00,664.8
2020-11-21,10:45:00,DRY,2.90,8.90,41.5,776.00,739.8
2020-11-21,10:50:00,DRY,2.80,9.23,40.3,776.00,626.0
2020-11-21,10:55:00,DRY,1.45,9.20,42.0,776.00,745.1
2020-11-21,11:00:00,DRY,2.30,9.23,43.7,776.00,670.8
2020-11-21,11:05:00,DRY,1.15,9.50,40.0,776.00,696.9
2020-11-21,11:10:00,DRY,2.50,9.50,40.7,775.67,752.8
2020-11-21,11:15:00,DRY,1.15,9.55,40.0,776.00,716.6
2020-11-21,11:20:00,DRY,1.90,9.57,41.0,776.00,756.7
2020-11-21,11:25:00,DRY,1.95,9.40,41.0,775.50,733.5
2020-11-21,11:30:00,DRY,1.77,9.70,40.7,776.00,723.6
2020-11-21,11:35:00,DRY,1.50,9.85,38.5,775.00,803.7
2020-11-21,11:40:00,DRY,2.07,9.97,40.7,775.00,813.4
2020-11-21,11:45:00,DRY,1.80,9.90,41.0,775.00,590.9
2020-11-21,11:50:00,DRY,2.33,9.57,39.0,775.00,852.4
2020-11-21,11:55:00,DRY,1.80,9.75,42.5,775.00,848.0
2020-11-21,12:00:00,DRY,2.37,9.90,42.0,775.00,837.0
2020-11-21,12:05:00,DRY,3.15,9.85,41.5,775.00,838.2
2020-11-21,12:10:00,DRY,1.57,9.83,42.7,775.00,836.8
2020-11-21,12:15:00,DRY,0.65,9.90,40.5,775.00,834.5